Terug naar catalogus

HAWK-11B

ActiefWetenschapVLEO
NORAD 62379·PAYLOAD·🇺🇸 United States

Gelanceerd Dec 21, 2024 vanaf Vandenberg Space Force Base

Loading…

Volgende Passages (komende 24 uur)

TLE

VersSource: Space-Track

Epoch: Sep 13, 2026, 18:50 UTC

1 62379U 24247C   26256.78529372  .00005299  00000-0  18154-3 0  9997
2 62379  45.0146 163.7703 0002282  12.0045 348.0894 15.31354779 96581

Volg HAWK-11B in realtime met AllMySat

Download on the App Store